TimeCDT,TemperatureF,Dew PointF,Humidity,Sea Level PressureIn,VisibilityMPH,Wind Direction,Wind SpeedMPH,Gust SpeedMPH,PrecipitationIn,Events,Conditions,WindDirDegrees,DateUTC
12:15 AM,53.6,49.3,85,30.06,10.0,NW,15.0,18.4,N/A,,Mostly Cloudy,320,2013-06-02 05:15:00
12:35 AM,52.9,49.1,87,30.06,10.0,NNW,13.8,18.4,N/A,,Mostly Cloudy,340,2013-06-02 05:35:00
12:55 AM,52.7,49.1,88,30.07,10.0,NNW,10.4,-,N/A,,Mostly Cloudy,330,2013-06-02 05:55:00
1:15 AM,52.7,49.1,88,30.08,10.0,NW,11.5,-,N/A,,Overcast,320,2013-06-02 06:15:00
1:35 AM,52.7,48.7,86,30.07,10.0,NNW,9.2,17.3,N/A,,Overcast,340,2013-06-02 06:35:00
1:55 AM,52.0,48.4,88,30.08,10.0,NW,11.5,-,N/A,,Mostly Cloudy,320,2013-06-02 06:55:00
2:15 AM,52.7,48.2,85,30.08,10.0,NW,11.5,-,N/A,,Overcast,320,2013-06-02 07:15:00
2:35 AM,52.9,47.3,81,30.08,10.0,NNW,16.1,20.7,N/A,,Overcast,330,2013-06-02 07:35:00
2:55 AM,52.3,45.7,78,30.07,10.0,NNW,12.7,21.9,N/A,,Mostly Cloudy,330,2013-06-02 07:55:00
3:15 AM,52.7,45.7,77,30.07,10.0,NNW,11.5,17.3,N/A,,Mostly Cloudy,330,2013-06-02 08:15:00
3:35 AM,52.9,44.8,74,30.07,10.0,NNW,10.4,-,N/A,,Overcast,340,2013-06-02 08:35:00
3:55 AM,53.1,45.0,74,30.07,10.0,NNW,9.2,-,N/A,,Overcast,340,2013-06-02 08:55:00
4:15 AM,52.7,44.8,74,30.08,10.0,NNW,13.8,23.0,N/A,,Overcast,340,2013-06-02 09:15:00
4:35 AM,52.7,44.6,74,30.08,10.0,North,9.2,19.6,N/A,,Overcast,350,2013-06-02 09:35:00
4:55 AM,52.7,44.6,74,30.09,10.0,NNW,8.1,19.6,N/A,,Overcast,340,2013-06-02 09:55:00
5:15 AM,52.7,44.8,74,30.09,10.0,NNW,9.2,-,N/A,,Overcast,330,2013-06-02 10:15:00
5:35 AM,52.2,45.0,76,30.10,10.0,NNW,4.6,-,N/A,,Overcast,340,2013-06-02 10:35:00
5:55 AM,52.0,44.8,76,30.10,10.0,NNW,5.8,-,N/A,,Overcast,340,2013-06-02 10:55:00
6:15 AM,50.7,45.9,83,30.11,10.0,West,10.4,-,N/A,,Overcast,270,2013-06-02 11:15:00
6:35 AM,49.6,46.9,90,30.11,10.0,WNW,6.9,-,N/A,,Overcast,290,2013-06-02 11:35:00
6:55 AM,49.6,46.8,90,30.11,10.0,WNW,6.9,-,N/A,,Overcast,300,2013-06-02 11:55:00
7:15 AM,50.0,46.6,88,30.12,10.0,WNW,8.1,-,N/A,,Overcast,300,2013-06-02 12:15:00
7:35 AM,50.5,46.9,87,30.12,10.0,NW,6.9,-,N/A,,Overcast,320,2013-06-02 12:35:00
7:55 AM,51.3,46.6,84,30.13,10.0,NW,9.2,-,N/A,,Overcast,310,2013-06-02 12:55:00
8:15 AM,52.7,47.1,81,30.13,10.0,NNW,8.1,-,N/A,,Overcast,330,2013-06-02 13:15:00
8:35 AM,53.6,46.8,78,30.14,10.0,NW,8.1,-,N/A,,Mostly Cloudy,320,2013-06-02 13:35:00
8:55 AM,54.7,46.2,73,30.13,10.0,NNW,9.2,-,N/A,,Scattered Clouds,330,2013-06-02 13:55:00
9:15 AM,55.8,45.9,69,30.13,10.0,NNW,6.9,-,N/A,,Scattered Clouds,330,2013-06-02 14:15:00
9:35 AM,58.1,45.1,62,30.13,10.0,North,4.6,-,N/A,,Overcast,360,2013-06-02 14:35:00
9:55 AM,56.3,44.6,65,30.14,10.0,North,6.9,-,N/A,,Mostly Cloudy,350,2013-06-02 14:55:00
10:15 AM,55.9,44.1,64,30.15,10.0,North,5.8,-,N/A,,Scattered Clouds,350,2013-06-02 15:15:00
10:35 AM,58.1,44.6,61,30.14,10.0,NW,3.5,-,N/A,,Scattered Clouds,320,2013-06-02 15:35:00
10:55 AM,58.8,45.5,61,30.14,10.0,NNW,11.5,-,N/A,,Mostly Cloudy,330,2013-06-02 15:55:00
11:15 AM,59.7,45.1,59,30.13,10.0,NE,6.9,-,N/A,,Scattered Clouds,40,2013-06-02 16:15:00
11:35 AM,60.4,45.1,57,30.13,10.0,North,8.1,-,N/A,,Clear,360,2013-06-02 16:35:00
11:55 AM,61.2,46.2,58,30.12,10.0,NNW,6.9,-,N/A,,Clear,340,2013-06-02 16:55:00
12:15 PM,61.7,46.6,58,30.12,10.0,NNW,3.5,-,N/A,,Clear,340,2013-06-02 17:15:00
12:35 PM,62.1,46.2,56,30.12,10.0,NE,6.9,-,N/A,,Clear,40,2013-06-02 17:35:00
12:55 PM,62.4,46.2,55,30.11,10.0,NNW,4.6,-,N/A,,Clear,340,2013-06-02 17:55:00
1:15 PM,63.0,46.0,54,30.11,10.0,WNW,5.8,-,N/A,,Clear,290,2013-06-02 18:15:00
1:35 PM,64.2,46.9,53,30.11,10.0,North,8.1,-,N/A,,Clear,360,2013-06-02 18:35:00
1:55 PM,64.2,46.0,52,30.10,10.0,ENE,8.1,-,N/A,,Clear,60,2013-06-02 18:55:00
2:15 PM,64.9,45.9,50,30.10,10.0,ENE,3.5,-,N/A,,Clear,60,2013-06-02 19:15:00
2:35 PM,65.8,45.3,47,30.09,10.0,NNE,5.8,17.3,N/A,,Clear,30,2013-06-02 19:35:00
2:55 PM,66.9,46.8,48,30.09,10.0,NNE,4.6,-,N/A,,Clear,30,2013-06-02 19:55:00
3:15 PM,66.7,45.5,46,30.08,10.0,North,3.5,-,N/A,,Clear,350,2013-06-02 20:15:00
3:35 PM,68.0,46.2,46,30.07,10.0,North,4.6,-,N/A,,Clear,10,2013-06-02 20:35:00
3:55 PM,67.8,46.0,46,30.07,10.0,Calm,Calm,-,N/A,,Clear,0,2013-06-02 20:55:00
4:15 PM,68.5,46.2,45,30.06,10.0,NE,6.9,-,N/A,,Clear,40,2013-06-02 21:15:00
4:35 PM,68.7,44.4,42,30.06,10.0,East,6.9,-,N/A,,Clear,80,2013-06-02 21:35:00
4:55 PM,67.6,43.5,42,30.05,10.0,South,3.5,-,N/A,,Clear,170,2013-06-02 21:55:00
5:15 PM,68.9,43.7,40,30.04,10.0,East,4.6,-,N/A,,Clear,100,2013-06-02 22:15:00
5:35 PM,69.1,43.7,40,30.04,10.0,East,5.8,-,N/A,,Clear,100,2013-06-02 22:35:00
5:55 PM,68.7,42.8,39,30.03,10.0,ESE,3.5,-,N/A,,Clear,110,2013-06-02 22:55:00
6:15 PM,68.7,41.7,37,30.03,10.0,East,3.5,-,N/A,,Clear,80,2013-06-02 23:15:00
6:35 PM,68.9,43.7,40,30.02,10.0,Calm,Calm,-,N/A,,Clear,0,2013-06-02 23:35:00
6:55 PM,68.7,42.8,39,30.02,10.0,East,4.6,-,N/A,,Clear,100,2013-06-02 23:55:00
7:15 PM,68.2,41.9,38,30.01,10.0,Calm,Calm,-,N/A,,Clear,0,2013-06-03 00:15:00
7:35 PM,67.6,44.1,43,30.01,10.0,Calm,Calm,-,N/A,,Clear,0,2013-06-03 00:35:00
7:55 PM,66.7,46.0,47,30.01,10.0,SSE,4.6,-,N/A,,Clear,160,2013-06-03 00:55:00
8:15 PM,66.4,45.1,46,30.01,10.0,East,5.8,-,N/A,,Clear,100,2013-06-03 01:15:00
8:35 PM,65.1,45.5,49,30.01,10.0,East,6.9,-,N/A,,Clear,100,2013-06-03 01:35:00
8:55 PM,63.5,46.2,53,30.01,10.0,ESE,8.1,-,N/A,,Clear,110,2013-06-03 01:55:00
9:15 PM,63.0,46.8,55,30.02,10.0,ESE,6.9,-,N/A,,Clear,110,2013-06-03 02:15:00
9:35 PM,61.9,47.1,58,30.02,10.0,ESE,5.8,-,N/A,,Clear,110,2013-06-03 02:35:00
9:55 PM,61.0,46.4,59,30.03,10.0,ESE,4.6,-,N/A,,Clear,120,2013-06-03 02:55:00
10:15 PM,60.1,46.4,61,30.04,10.0,ESE,5.8,-,N/A,,Clear,120,2013-06-03 03:15:00
10:35 PM,58.8,47.1,65,30.04,10.0,SE,4.6,-,N/A,,Clear,130,2013-06-03 03:35:00
10:55 PM,58.8,47.3,66,30.03,10.0,ESE,4.6,-,N/A,,Clear,120,2013-06-03 03:55:00
11:15 PM,57.9,47.3,68,30.03,10.0,ESE,3.5,-,N/A,,Clear,110,2013-06-03 04:15:00
11:35 PM,57.6,47.3,69,30.03,10.0,ESE,4.6,-,N/A,,Clear,110,2013-06-03 04:35:00
11:55 PM,57.0,47.3,70,30.03,10.0,ESE,4.6,-,N/A,,Clear,120,2013-06-03 04:55:00